User: anonymous   Login
Location: Bakersfield
(35.3730°N, 119.0180°W)
Time: 14:34:17
(UTC-08:00)
Language:

ATLAS 5 CENTAUR R/B - Orbit

View from above orbital plane
View from above orbital plane
View from above satellite
View from above satellite

Ground track
Ground track

The orbit data is extracted from the following two-line orbital elements,

1 31702U 07027B   16028.71385947 0.00000400  00000-0  15306-3 0    05
2 31702  63.3717 255.0910 0216000 358.0286   1.9714 14.18456389    06
Epoch (UTC): 28 January 2016 17:07:57
Eccentricity: 0.0216000
inclination: 63.3717°
perigee height: 675 km
apogee height: 986 km
right ascension of ascending node: 255.0910°
argument of perigee: 358.0286°
revolutions per day: 14.18456389
mean anomaly at epoch: 1.9714°
orbit number at epoch: 0

The dashed part of the orbit path shows where the satellite is in the earth's shadow,  

DLR